Hourly Weather Roundup
Issued by NWS

Home | Current Version | Previous Version | Text Only | Print | Product List | Glossary On
Versions: 1 2 3 4 5 6 7 8 9 10 11 12 13 14 15 16 17 18 19 20 21 22 23 24 25 26 27 28 29 30 31 32 33 34 35 36 37 38 39 40 41 42 43 44 45 46 47 48 49 50
581
NZUS43 KILX 230810
HWRCRS

NWR Hourly Weather Roundup
National Weather Service Lincoln IL
300 AM CDT MON APR 23 2018


CITY           SKY/WX    TMP DP  RH WIND       PRES   REMARKS
Champaign      FAIR      50  30  46 NE15      30.10F
Lawrenceville  CLOUDY    58  37  45 NE8       30.02S
Peoria         FAIR      51  27  39 E17G25    30.14F
Springfield    CLOUDY    54  33  45 NE16      30.09S
$$


CITY           SKY/WX    TMP DP  RH WIND       PRES   REMARKS
Bloomington    FAIR      45  30  55 NE12      30.14F
Danville       FAIR      46  28  48 NE8       30.10S
Decatur        CLOUDY    51  32  48 NE14      30.07F
Effingham      CLOUDY    56  37  49 NE6       30.03F
Flora          LGT RAIN  55  41  58 NE6       30.00F
Galesburg      FAIR      50  32  50 NE10      30.15F
Jacksonville   CLOUDY    53  33  46 NE10      30.08S
Lacon          FAIR      46  29  51 NE3       30.16S
La Salle       FAIR      45  32  61 NE10      30.18F
Lincoln        MOCLDY    52  32  45 NE13G21   30.10S
Litchfield     CLOUDY    53  36  50 NE16      30.02F

CITY           SKY/WX    TMP DP  RH WIND       PRES   REMARKS
Macomb         PTCLDY    48  32  53 NE12      30.14F
Mattoon        CLOUDY    53  34  48 NE15      30.04F
Moline         FAIR      45  29  53 NE6       30.17F
Olney          LGT RAIN  55  34  45 NE6       30.01S
Paris          FAIR      51  32  49 NE13      30.08F
Pontiac        FAIR      42  32  66 NE10      30.16F
Quincy         CLOUDY    52  34  50 NE12      30.09F
Rantoul        FAIR      48  29  47 NE12      30.12F
Robinson       CLOUDY    57  33  40 NE10G18   30.03S
Taylorville    CLOUDY    54  32  44 NE13      30.06S
Terre Haute    CLOUDY    54  34  46 NE12      30.05F
$$


CITY           SKY/WX    TMP DP  RH WIND       PRES   REMARKS
Burlington     CLOUDY    50  28  42 NE12      30.13F
Chicago        MOCLDY    43  30  60 NE8       30.20F
Des Moines     PTCLDY    51  31  46 E6        30.17F
Evansville     RAIN      51  47  86 NE13      29.97F
Indianapolis   MOCLDY    50  29  44 NE15G22   30.09F
Kansas City    CLOUDY    54  30  40 NE8       30.08F
Milwaukee      FAIR      40  29  64 N3        30.27R
St Louis       LGT RAIN  57  38  48 NE12      30.01F
$$





USA.gov is the U.S. government's official web portal to all federal, state and local government web resources and services.